RH
40 41 42 44 45 47 49 50 51 52 53 53 54 56 58 59 60 60 61 63 69 75 78 81 85 89 91 93 95 96 97 98 99 100 100 100 99 98 96 92 90 88 87 86 83 83 87 90 89 87 86 87 86 82 80 77 74 73 76 78 77 76 77 81 87 85 78 72 66 61 58 54 50 47 39 34 33 33 32 30 28 28 28 28 31
40 43 45 46 48 50 51 53 53 53 54 55 57 58 58 59 61 62 63 66 71 75 79 84 88 92 93 94 96 96 97 98 99 101 101 101 100 100 99 98 95 91 89 87 83 83 89 93 91 88 89 91 90 86 84 79 75 74 76 79 79 76 76 81 84 85 82 76 69 64 60 57 57 55 46 36 35 36 34 33 32 32 33 32 33
46 48 49 49 50 52 52 53 53 54 55 56 58 60 60 61 63 66 69 70 70 73 79 86 91 94 95 96 96 97 97 97 98 99 100 100 101 100 100 101 99 97 94 90 86 88 94 97 95 93 95 96 94 90 88 85 80 76 75 77 80 81 80 82 85 86 86 81 75 69 62 57 57 59 55 50 46 42 38 37 36 35 38 39 39
50 51 51 51 52 53 54 54 54 55 57 58 62 66 66 66 68 72 74 73 71 73 78 83 88 92 95 96 97 96 97 98 100 100 100 100 101 101 100 101 100 100 99 96 92 92 94 96 95 95 98 100 98 96 93 91 89 86 84 83 84 84 83 83 83 84 86 85 79 71 64 62 61 60 61 61 55 47 42 42 41 41 43 46 49
54 53 52 53 54 55 55 57 58 59 60 62 65 68 67 67 68 68 69 70 71 73 76 80 86 92 96 98 99 99 99 100 100 100 101 101 101 100 100 100 100 100 101 99 97 95 95 96 95 96 101 102 101 100 97 97 96 95 95 93 90 89 88 86 83 82 84 86 83 77 71 68 66 65 65 65 58 49 46 46 47 50 50 49 53
55 54 55 55 56 58 59 61 62 62 63 63 65 65 64 63 63 64 65 67 70 73 76 82 89 93 97 98 99 99 100 101 101 100 101 101 101 100 100 100 100 100 101 101 100 99 99 99 99 100 102 103 102 102 101 101 101 100 99 97 95 93 91 89 88 87 86 86 85 82 78 74 73 71 68 66 61 51 49 53 55 55 54 52 54
58 57 59 59 60 61 62 63 63 63 63 62 63 63 63 64 65 67 69 70 73 76 80 86 91 93 94 94 94 96 98 99 100 100 100 101 101 100 100 100 100 100 100 100 101 101 101 101 102 102 102 102 102 102 102 102 102 102 102 100 99 96 93 91 90 89 89 88 87 85 82 79 77 75 70 67 63 57 56 61 63 60 59 59 59
62 61 61 62 63 63 62 63 63 63 64 64 64 66 68 71 73 74 75 77 80 84 88 92 95 95 94 93 92 94 96 96 96 97 99 100 101 100 100 100 100 100 100 100 100 100 101 100 101 101 101 101 101 101 102 101 101 102 102 102 101 99 98 96 93 92 91 91 90 88 86 84 80 76 73 69 67 66 65 67 70 70 69 67 65
64 63 63 65 65 64 63 65 65 65 67 68 70 73 76 78 79 80 81 83 85 90 95 98 99 98 98 97 96 98 98 98 97 98 100 100 100 100 100 100 100 100 100 100 100 100 100 100 100 99 99 98 99 100 100 101 102 101 101 102 102 100 100 100 97 96 94 94 93 89 87 86 83 79 76 72 71 72 71 72 77 77 76 75 72
67 67 70 71 69 67 68 68 69 70 72 74 77 79 82 83 84 84 86 86 88 93 98 99 100 100 100 100 100 100 100 100 99 99 100 100 100 100 100 100 100 101 100 100 100 100 99 100 100 99 99 98 99 99 99 100 102 101 100 101 102 102 102 102 100 98 96 95 93 90 89 88 83 82 82 78 77 78 77 81 86 84 83 84 82
72 74 76 75 72 70 71 72 74 76 78 80 82 83 85 87 87 88 88 88 91 95 98 99 99 99 100 100 100 100 100 100 100 100 100 100 100 100 100 100 100 100 100 100 100 100 100 100 100 100 100 99 98 98 99 100 101 101 101 101 101 101 101 102 101 99 98 97 94 91 92 90 85 84 86 84 83 84 85 87 91 93 92 92 89
75 77 76 74 72 73 75 77 79 81 83 85 86 88 91 91 91 92 90 91 95 97 97 98 99 100 100 100 100 100 100 100 100 100 100 100 100 100 100 100 100 100 100 100 100 100 100 100 100 100 100 100 99 99 99 100 101 101 101 100 100 101 101 101 101 99 98 100 99 95 93 92 91 90 91 91 90 90 90 89 93 99 99 96 94
73 75 75 74 75 78 80 82 84 85 87 88 89 94 97 95 94 95 93 94 97 97 96 98 99 100 100 100 100 100 99 100 100 100 100 100 100 100 100 100 100 100 100 100 100 101 100 100 100 100 100 100 100 100 100 100 100 100 101 100 100 100 100 100 100 100 99 100 102 99 94 93 95 93 93 94 94 94 95 94 96 100 100 97 96
74 76 77 79 81 83 85 86 87 88 88 90 92 96 99 97 94 95 96 97 98 98 99 99 98 99 100 100 100 100 99 100 100 100 100 100 100 101 99 97 97 99 100 100 100 100 100 101 100 100 100 100 100 100 101 100 100 100 100 101 100 100 100 100 100 100 100 100 102 99 94 95 97 95 94 95 93 93 97 98 99 100 97 93 92
77 81 83 85 87 88 89 89 89 89 90 90 92 95 96 94 93 96 98 98 99 99 100 99 98 99 101 101 101 100 99 100 100 100 100 100 101 100 98 96 98 99 99 98 98 97 97 99 101 100 100 100 99 98 99 100 100 100 100 99 99 100 100 99 100 101 101 101 100 98 96 97 98 95 91 88 86 89 94 99 101 99 95 91 90
83 87 88 89 91 91 91 90 90 90 90 91 92 94 94 93 94 98 99 97 97 98 98 99 101 101 101 101 101 101 100 100 100 100 100 100 101 100 99 99 99 99 98 98 98 96 95 95 97 99 100 101 99 98 99 101 100 100 101 100 99 100 99 96 98 102 102 100 99 97 96 97 98 96 91 88 89 93 98 100 99 96 93 91 89
88 91 91 92 92 92 92 92 92 91 92 95 95 92 91 93 95 99 101 99 97 97 99 100 100 99 99 100 101 102 100 100 101 101 100 100 101 100 99 100 100 100 99 97 93 92 92 92 93 94 96 99 101 100 101 102 100 100 101 99 100 100 96 93 97 102 102 100 100 99 99 99 100 99 98 97 98 99 100 101 99 95 93 92 89
91 92 93 93 93 92 92 94 94 92 92 95 95 92 91 95 98 99 101 100 99 99 101 100 95 94 98 100 100 100 100 100 101 101 101 100 100 100 100 101 101 101 100 97 93 92 92 90 89 90 93 99 101 101 101 101 100 101 101 99 101 101 95 94 98 100 101 101 100 98 97 98 100 101 100 100 101 101 101 102 100 97 95 94 90
94 94 95 94 94 93 93 92 93 92 90 91 93 93 93 95 98 98 97 98 100 100 100 99 96 94 97 97 96 97 100 100 99 99 101 102 100 99 100 101 101 100 100 98 96 94 91 88 89 91 95 100 100 98 98 96 95 99 101 100 101 98 92 94 99 100 101 101 97 92 90 91 93 96 97 98 98 98 98 98 98 96 94 93 92
96 96 95 94 94 93 92 92 92 91 92 91 90 89 93 96 96 95 94 97 101 99 95 97 97 94 93 93 91 91 94 96 95 96 100 102 101 100 100 100 101 101 100 98 96 94 91 89 91 91 92 96 96 94 92 88 89 97 101 101 100 96 92 95 100 101 101 100 96 91 88 87 87 86 88 90 90 90 90 91 93 94 95 94 95
97 95 95 94 93 93 93 92 91 90 92 92 86 84 92 97 94 94 98 99 99 96 91 91 93 90 86 86 87 85 85 88 92 95 99 100 100 100 100 100 100 101 101 100 97 94 90 90 92 89 88 92 93 92 89 85 87 95 99 98 96 94 95 99 100 100 101 100 98 95 92 92 92 89 88 86 84 84 86 86 88 90 93 94 96
96 94 93 93 92 92 91 90 91 91 90 88 84 83 90 92 88 93 100 99 94 92 88 85 86 86 82 82 83 81 81 86 92 96 97 99 100 100 100 100 100 101 103 102 99 96 94 95 96 92 89 90 90 90 88 83 87 97 100 98 96 95 98 101 101 100 101 100 99 98 96 97 98 96 94 91 88 87 87 85 83 83 87 90 93
93 92 92 91 90 90 89 89 91 92 88 83 82 86 91 89 84 89 97 95 90 89 87 84 86 86 83 83 82 79 81 86 90 94 98 99 101 101 100 100 100 100 101 101 98 98 98 98 98 97 96 94 91 90 88 86 93 100 95 92 95 97 97 97 98 100 101 100 101 101 99 99 99 99 98 98 96 96 95 91 86 84 87 90 92
91 90 89 89 89 87 89 92 91 87 86 85 84 87 90 87 83 87 93 92 90 89 88 87 89 88 86 86 83 80 84 87 87 92 99 102 101 100 100 101 100 99 100 99 98 98 98 97 98 100 101 98 91 89 89 91 99 102 92 82 82 87 90 92 94 99 101 99 100 101 98 95 95 96 97 96 95 97 98 97 93 91 93 93 92
90 89 85 87 91 89 89 90 86 81 84 87 88 91 91 87 84 87 92 93 91 91 91 91 92 91 89 90 88 84 86 88 88 91 98 101 102 101 100 101 101 100 100 101 99 98 100 101 100 101 102 99 92 89 90 91 95 99 96 87 80 84 92 94 92 94 95 94 93 93 92 92 93 96 97 95 92 92 93 93 93 94 96 94 92
88 87 83 85 90 88 86 85 81 80 82 84 86 90 91 89 86 87 95 97 90 90 95 97 95 95 92 92 93 91 90 91 91 94 98 100 101 101 101 101 102 101 101 101 100 100 100 98 95 95 98 97 90 85 87 90 91 94 97 95 90 92 95 94 91 91 89 88 90 91 90 92 95 94 92 90 87 85 87 92 97 97 95 93 90
88 91 88 87 86 83 84 88 84 80 82 83 84 85 86 86 84 85 96 101 90 87 97 101 99 99 97 94 96 96 94 94 95 98 101 101 100 101 101 101 101 101 100 100 101 100 96 90 85 85 87 85 79 77 80 85 89 92 95 94 93 95 95 89 88 89 87 87 92 92 89 92 94 92 89 88 88 89 92 98 100 95 92 91 90
93 97 92 88 84 77 81 92 89 80 79 83 85 86 88 90 85 79 87 100 99 96 100 102 101 101 97 95 101 103 98 97 100 101 101 100 100 100 101 100 101 100 100 100 101 97 91 84 80 79 78 76 74 74 76 77 79 83 89 89 86 91 95 89 85 88 90 92 94 91 88 89 90 91 92 92 92 92 94 96 96 92 90 90 88
93 97 90 86 82 74 76 87 87 82 83 83 79 78 84 94 94 81 76 86 97 101 102 101 101 101 94 91 100 105 101 99 101 101 101 100 100 101 100 100 101 100 100 102 100 94 88 82 78 79 79 77 77 79 78 77 75 76 83 86 84 86 89 86 86 91 91 88 88 88 88 90 88 87 89 89 88 87 89 90 91 90 90 88 85
85 90 89 87 83 78 80 83 83 84 87 86 81 73 70 77 89 92 87 83 84 93 101 101 100 99 95 91 95 100 101 101 101 101 103 102 100 100 100 101 101 100 100 101 96 89 85 81 79 82 82 80 83 86 83 80 80 78 79 81 79 80 85 88 90 90 83 81 86 90 89 88 87 85 85 85 85 84 84 85 87 89 89 87 85
79 85 91 87 80 81 88 87 84 85 86 85 87 85 75 67 71 84 94 93 89 92 99 101 98 97 97 98 96 92 92 96 99 100 101 101 100 100 99 99 101 102 99 96 90 84 82 83 83 84 83 81 84 86 83 83 86 85 84 83 79 81 91 97 93 84 79 81 88 91 88 86 87 86 85 86 86 85 85 85 85 86 86 85 82
75 83 93 88 78 83 92 91 87 87 85 83 85 88 87 81 73 71 78 87 92 94 96 97 97 94 94 100 101 92 87 91 95 97 98 100 101 100 96 95 99 100 94 90 88 84 83 85 85 85 86 84 83 83 83 84 87 88 89 91 88 87 94 96 86 81 85 90 90 89 88 87 87 86 86 88 88 87 87 87 86 86 86 83 79
74 84 94 91 83 86 92 92 90 88 85 85 87 88 90 92 88 79 74 74 78 82 86 91 94 91 89 95 103 99 90 87 91 96 99 100 101 100 98 96 97 96 92 88 88 88 88 88 88 87 87 86 85 84 84 85 87 89 91 94 93 91 91 91 86 87 91 90 88 89 89 86 86 87 87 89 90 90 89 89 89 89 88 82 77
76 86 96 98 91 88 88 90 92 90 86 85 88 89 91 91 90 87 84 80 75 74 75 78 83 85 85 90 97 96 84 76 82 95 101 102 102 102 100 95 92 91 90 89 89 91 92 91 91 90 89 88 87 87 87 86 88 89 91 93 92 91 91 91 93 94 91 86 86 91 89 85 87 91 91 90 91 92 92 92 92 90 88 83 78
73 81 92 97 91 83 81 85 90 91 89 86 85 87 89 89 86 85 87 87 85 81 77 76 76 79 82 86 89 87 76 69 77 93 101 101 103 102 98 94 92 91 90 90 93 95 95 94 94 94 93 92 91 90 89 89 88 89 91 93 93 93 94 94 92 90 87 86 90 93 89 85 88 92 93 92 91 92 93 94 93 90 85 80 76
72 76 83 87 83 76 75 81 89 93 90 87 87 88 87 86 85 85 85 85 84 83 82 80 78 78 81 84 85 81 73 69 79 94 100 101 101 100 97 96 97 95 93 94 96 97 97 97 97 98 97 95 95 93 92 90 90 90 91 93 93 93 94 95 95 93 90 90 94 95 91 89 90 93 94 94 94 95 96 95 93 89 82 76 74
76 77 81 81 77 73 72 76 83 87 87 87 89 88 86 85 85 86 85 84 83 83 83 83 82 81 82 85 84 80 74 72 80 92 96 95 96 97 96 97 99 98 97 98 98 99 99 99 99 100 99 98 98 97 95 93 92 92 92 93 93 93 93 95 98 97 95 94 95 94 91 91 93 94 95 96 95 96 97 96 95 89 79 74 75
77 81 86 84 76 73 74 75 76 79 83 87 89 87 88 89 88 86 86 85 85 86 86 85 85 85 85 86 86 84 77 73 77 86 91 90 92 94 95 97 100 100 100 100 100 100 101 100 100 101 101 100 99 99 98 96 95 95 95 95 93 92 93 93 93 93 95 96 94 91 91 94 95 96 97 97 97 98 99 98 94 86 78 75 77
69 72 78 77 74 76 77 75 74 79 84 87 87 86 88 90 89 88 89 88 88 89 89 87 87 87 86 86 88 89 86 81 83 91 94 92 91 94 95 97 100 100 100 101 101 100 100 100 100 100 101 100 100 100 100 99 99 99 99 98 97 95 95 94 93 96 99 97 91 90 95 99 99 99 100 100 100 101 100 94 86 81 79 79 79
64 62 63 65 71 77 77 75 77 83 86 85 84 84 87 89 89 89 89 89 90 91 90 90 88 87 86 86 89 92 93 89 90 95 96 93 93 95 96 97 100 101 101 102 101 101 100 100 100 101 100 100 100 100 100 100 101 100 100 100 100 99 98 96 95 97 99 96 93 95 101 102 100 99 99 99 101 102 98 90 82 80 81 81 80
69 63 59 62 69 76 77 77 80 83 82 80 81 85 88 89 87 86 88 91 93 93 91 91 90 88 88 88 89 91 92 91 91 93 93 92 94 96 97 99 101 101 101 102 102 101 100 100 100 100 100 100 101 100 100 100 100 100 100 100 100 100 100 98 98 98 99 97 97 99 101 100 99 98 99 99 101 99 93 86 82 80 81 83 85
76 70 66 68 74 79 81 82 82 81 81 81 82 84 85 83 82 83 86 91 94 94 92 91 89 89 90 90 90 90 91 91 91 92 91 92 95 97 98 100 101 101 101 102 101 100 100 100 101 101 100 100 100 100 100 100 100 100 100 100 100 101 100 99 100 100 99 97 97 99 99 99 100 101 101 100 98 93 86 81 80 82 85 87 90
79 74 74 78 81 83 85 86 86 85 86 85 84 83 82 80 81 84 88 90 91 91 91 92 91 91 92 91 91 92 92 91 92 92 92 93 96 97 98 100 101 102 102 102 101 101 101 101 102 102 101 101 101 101 101 101 100 100 100 100 100 101 101 100 101 101 99 97 97 98 98 98 99 99 98 94 90 85 81 80 82 85 89 93 95
79 75 78 82 83 83 84 86 88 89 89 89 89 88 87 86 86 87 87 88 88 89 91 92 92 92 92 92 93 94 94 94 95 95 95 95 96 97 98 101 103 103 102 101 101 103 102 102 102 101 101 102 104 104 103 102 100 100 100 100 101 101 100 100 100 98 92 88 88 87 86 85 85 85 83 82 82 82 82 83 87 91 94 97 99
76 76 81 84 85 86 86 86 87 90 90 90 91 91 90 90 89 88 88 89 88 89 90 90 90 91 92 92 93 94 95 97 98 99 98 98 98 98 100 103 104 104 101 99 100 102 103 102 102 101 101 102 103 104 103 102 101 101 101 100 100 101 100 99 96 91 84 82 82 82 81 77 74 73 73 75 80 84 87 89 93 96 99 101 102
78 82 87 88 88 88 87 85 86 90 91 91 91 90 89 90 90 89 90 90 90 90 90 89 89 91 91 91 92 94 95 97 99 100 101 101 101 102 103 103 103 102 100 97 98 99 100 100 101 101 102 102 101 100 98 97 97 99 101 101 100 99 97 93 87 82 79 79 80 80 78 74 70 70 74 77 81 85 88 91 95 99 102 103 103
83 86 90 90 89 88 87 87 88 91 92 92 92 90 89 90 90 89 90 90 90 90 89 89 90 91 91 91 91 92 93 96 98 99 101 103 104 104 104 103 102 100 97 95 95 95 94 95 98 100 100 100 98 96 93 91 91 94 96 96 95 91 88 84 81 79 78 78 77 76 74 71 68 69 74 78 83 87 90 93 97 100 103 104 103
83 87 90 92 92 91 90 88 90 93 94 94 93 92 91 91 90 90 91 91 91 90 90 90 90 91 90 89 89 91 93 94 94 95 99 102 104 104 104 102 100 99 96 93 91 90 90 92 94 95 95 95 94 92 90 88 88 90 91 90 89 86 83 81 79 76 74 72 70 69 69 69 70 73 77 81 86 90 93 96 99 101 103 103 102
85 89 94 96 95 93 92 91 92 95 96 95 95 94 93 93 92 92 93 94 93 93 93 93 93 92 91 89 89 91 92 92 89 89 93 98 101 103 102 100 97 96 95 91 88 88 88 89 89 89 90 91 91 90 89 87 88 90 90 89 86 83 80 76 73 69 67 65 65 67 69 71 74 78 80 83 87 92 96 99 101 102 102 102 101
90 95 99 100 98 96 93 93 94 96 97 97 97 97 95 95 95 95 97 98 97 97 98 98 97 97 96 95 95 95 93 90 88 87 89 93 97 99 99 97 95 92 90 88 88 88 87 85 84 85 87 88 88 88 89 89 89 90 90 86 81 77 72 68 65 64 64 64 66 69 72 75 77 78 80 84 88 93 95 97 98 99 100 101 101
95 99 102 103 102 99 96 96 97 99 99 98 99 98 98 99 99 99 100 101 100 100 101 101 100 100 102 102 102 100 96 91 87 85 85 89 93 95 96 95 92 89 86 86 87 87 86 84 84 86 87 87 87 87 88 88 88 86 82 77 71 67 64 62 61 62 63 65 68 71 74 76 77 78 80 84 88 90 91 92 94 97 100 102 102
Wind_Speed
27 25 24 22 20 18 17 17 17 17 16 16 17 17 17 17 17 17 18 17 18 18 19 19 20 20 20 21 21 21 21 22 21 21 21 21 21 22 22 21 21 22 23 23 24 23 24 24 25 25 24 23 22 21 21 20 18 18 19 19 20 20 19 17 13 13 18 18 18 19 16 14 16 15 15 16 16 18 20 19 16 13 12 13 12
26 24 22 20 18 17 17 16 16 16 15 15 15 16 16 16 16 17 17 16 16 17 17 18 19 20 20 21 21 21 21 21 21 20 20 20 21 21 21 21 22 22 23 23 23 22 22 23 24 24 23 22 22 22 22 22 20 20 19 19 21 20 19 19 17 14 16 17 16 18 17 17 19 17 15 14 16 19 22 20 17 13 13 12 12
23 22 20 18 18 17 17 16 16 15 15 14 14 15 15 14 14 14 15 15 15 16 16 17 18 19 20 21 21 21 21 21 21 21 20 20 21 21 21 21 22 22 22 23 23 22 21 22 23 23 22 21 22 21 21 21 21 21 23 22 22 22 20 19 19 16 16 17 16 17 18 17 18 17 16 17 18 20 21 20 17 15 14 13 11
21 20 18 17 17 16 16 15 15 14 13 12 12 13 13 13 12 13 14 15 16 16 16 16 18 18 19 20 21 20 21 21 21 21 21 21 21 21 22 22 22 22 22 22 22 22 22 22 22 22 21 20 21 21 21 21 20 20 22 22 22 23 22 21 21 20 18 18 17 17 18 18 19 20 20 20 19 19 19 18 16 15 15 13 12
20 18 16 16 15 14 14 13 13 12 11 11 11 11 12 13 13 13 14 15 16 16 17 17 17 18 18 19 20 20 20 21 21 21 21 21 21 22 22 22 22 22 23 23 22 22 21 22 22 21 20 20 21 21 21 20 20 19 20 21 20 20 19 19 21 21 19 19 19 18 18 18 19 20 19 19 19 17 17 17 15 13 12 12 11
17 15 14 14 12 11 11 10 10 10 10 10 11 11 12 13 13 14 14 15 16 16 17 17 16 17 17 18 19 19 20 20 20 20 20 20 21 21 21 22 22 22 23 23 22 22 21 22 22 21 20 21 22 22 21 20 20 20 20 20 19 18 18 17 17 17 18 19 19 18 17 17 18 19 17 16 16 15 16 17 13 11 11 12 11
13 12 11 10 9 8 8 9 9 10 10 10 11 12 12 13 14 14 14 15 16 16 16 16 16 16 17 17 18 18 18 18 19 19 19 19 19 19 20 21 22 22 22 22 21 21 21 21 21 21 21 21 22 22 22 21 21 20 20 21 20 19 19 19 18 17 18 18 18 17 17 16 17 18 16 14 14 14 13 12 11 13 14 13 12
9 8 7 7 7 7 7 8 9 9 10 11 11 12 13 13 14 14 15 15 15 16 16 16 16 16 17 17 17 17 17 17 18 18 18 17 17 18 19 20 21 22 22 22 21 21 21 21 21 22 21 21 22 22 22 22 22 21 20 20 19 20 20 19 18 17 17 17 16 15 15 15 15 16 15 13 11 9 8 8 12 15 16 14 15
5 5 5 5 6 6 7 8 9 10 10 11 11 12 13 14 14 14 15 15 15 15 15 15 16 17 18 17 17 17 18 18 18 17 17 18 19 20 21 21 22 23 23 23 23 22 22 22 22 23 23 22 22 21 21 21 21 22 21 18 17 17 17 17 16 15 15 15 14 13 13 13 12 12 10 7 4 5 8 11 12 13 15 16 15
3 3 4 5 6 7 8 9 10 11 11 12 12 13 13 14 15 15 15 15 14 14 13 14 15 16 17 17 17 18 18 18 17 16 16 18 20 22 22 23 23 24 24 24 24 24 24 24 24 24 23 23 22 22 22 22 22 22 22 20 18 17 17 16 15 15 14 13 12 12 10 10 10 9 7 6 6 8 10 10 10 12 14 14 12
2 3 5 6 8 9 10 10 11 12 12 13 14 14 14 15 16 16 16 15 14 14 14 14 15 15 15 16 17 17 17 17 16 16 17 18 19 21 22 22 22 22 23 23 24 24 24 24 24 24 22 21 22 22 22 22 22 23 23 22 20 19 18 17 16 15 14 13 13 12 10 10 11 10 9 9 9 9 9 9 10 11 10 9 7
4 5 7 8 9 10 10 11 12 12 13 14 14 15 15 16 17 17 17 15 14 15 15 15 15 15 15 16 16 16 17 17 16 17 18 18 19 21 21 21 21 21 21 21 22 23 23 23 23 23 22 20 20 21 22 22 22 22 23 23 22 20 20 19 18 16 15 13 12 12 12 12 11 11 9 9 10 9 10 11 10 9 9 7 7
6 7 8 9 10 10 11 11 12 13 13 14 14 15 15 17 17 17 17 15 15 16 16 15 15 15 15 16 16 16 17 17 16 17 18 19 19 20 20 20 20 20 21 21 22 22 22 22 22 22 20 20 20 21 22 22 21 21 21 21 22 21 21 21 20 19 18 16 14 14 15 13 12 12 10 9 9 10 10 10 9 8 9 9 11
7 8 9 10 10 11 11 12 13 13 14 14 14 14 15 16 17 17 16 15 16 16 16 15 16 16 16 16 16 17 18 17 16 17 19 20 20 20 19 20 20 20 20 20 21 22 21 21 21 21 20 19 19 20 21 22 21 20 20 20 20 21 22 22 22 21 20 18 18 20 20 17 15 15 14 13 13 13 11 11 9 8 11 14 17
8 9 9 10 11 12 12 13 14 14 15 15 15 15 15 16 16 15 15 15 16 16 15 15 16 16 16 16 17 17 17 15 16 18 19 20 20 20 20 20 19 19 19 19 19 20 20 20 20 20 20 20 18 18 19 20 20 20 19 19 20 20 22 23 23 23 22 21 21 23 23 21 19 19 18 17 16 14 11 11 10 10 14 17 18
9 10 10 12 12 13 13 14 14 15 16 16 16 16 16 16 15 14 14 16 16 15 15 15 16 17 17 17 18 17 15 14 16 19 20 20 20 21 21 20 18 18 18 18 19 18 19 20 20 20 20 19 19 18 17 17 18 19 19 19 19 19 20 22 22 22 21 20 20 21 21 20 19 18 17 15 15 13 9 10 10 10 13 13 14
11 12 12 13 13 13 13 14 15 15 16 16 17 17 17 16 15 14 14 16 16 16 15 15 16 17 17 18 17 17 16 15 16 19 20 20 21 21 21 19 18 18 18 18 19 19 19 19 19 20 20 20 20 20 16 14 16 17 18 19 19 19 20 21 19 19 18 17 17 18 18 17 16 16 15 15 13 11 9 10 10 10 10 9 9
13 13 13 13 13 13 13 14 14 15 16 16 16 17 16 15 14 14 15 16 16 15 15 16 17 18 17 17 17 17 16 15 15 18 19 19 21 22 21 20 18 18 19 20 19 19 19 19 18 19 20 19 19 18 16 14 15 17 17 18 18 19 20 19 17 17 16 14 14 15 15 16 16 16 15 12 10 10 9 11 12 11 10 8 8
14 13 13 13 13 13 13 14 14 14 15 15 16 16 16 14 14 14 15 15 14 15 16 16 18 18 17 17 16 16 16 16 16 18 18 18 20 22 21 20 19 20 21 21 20 19 18 19 18 18 19 20 20 19 17 16 19 20 18 16 17 19 20 17 15 16 15 13 11 11 11 12 14 16 17 15 14 14 15 16 15 13 12 11 10
13 13 12 12 13 13 13 14 13 14 14 15 16 16 14 14 15 15 15 14 14 15 17 17 17 17 17 17 16 15 15 16 17 18 17 17 19 21 21 21 21 22 22 21 20 20 20 19 19 18 20 22 23 22 20 20 20 20 17 14 16 17 17 14 12 13 13 11 10 10 9 9 10 12 14 14 15 16 16 16 16 15 13 13 11
12 12 12 13 13 13 13 13 13 13 14 15 15 15 14 14 16 15 14 14 14 16 17 16 16 16 17 16 16 15 16 17 18 18 16 16 19 21 22 21 22 23 22 20 20 20 20 20 20 19 20 21 22 22 21 19 18 17 14 13 15 15 13 11 10 10 10 10 10 10 10 10 10 11 11 12 12 13 13 13 14 14 13 13 13
12 12 13 13 13 13 13 12 13 14 14 14 15 15 15 15 15 14 13 14 15 15 16 16 15 16 16 16 15 16 17 18 18 17 16 16 19 21 21 21 22 22 22 21 20 20 21 21 20 20 21 22 23 21 20 19 15 12 10 9 11 12 10 10 11 10 11 11 10 10 9 9 10 11 12 13 12 11 11 10 10 10 10 12 13
11 12 13 13 13 13 13 13 14 14 14 15 15 15 15 15 15 14 13 14 15 15 16 16 16 16 16 16 16 18 19 19 19 17 16 17 20 21 20 21 21 21 21 21 20 21 22 22 23 24 24 23 22 20 19 16 11 7 7 9 10 9 8 8 8 9 9 8 8 8 9 9 10 11 12 11 11 10 10 10 9 10 11 12 14
11 12 13 13 13 14 13 13 13 14 13 14 15 14 14 15 15 14 13 13 14 15 16 16 16 16 16 16 17 20 21 20 19 17 16 19 21 21 21 22 21 20 20 20 20 21 23 25 27 27 25 22 20 18 17 15 11 8 9 12 13 11 9 7 6 5 5 5 6 8 8 9 10 10 9 8 7 7 8 10 12 13 14 14 15
12 13 13 13 13 14 13 12 13 14 13 13 13 13 14 15 15 14 13 13 14 15 16 16 15 16 16 17 19 22 22 21 20 18 18 21 22 22 22 22 21 21 20 20 20 21 24 27 27 25 22 20 18 16 15 15 13 13 12 12 12 9 7 5 4 5 5 5 6 7 8 8 8 7 6 7 8 9 11 12 13 13 13 14 15
12 13 14 14 13 14 14 13 14 15 14 13 13 12 13 14 15 14 13 13 15 15 15 14 14 15 16 18 20 22 22 22 20 20 22 24 24 23 24 23 22 21 21 20 21 24 26 26 24 22 21 20 16 14 14 13 12 11 10 9 7 6 5 5 5 5 6 7 7 8 9 8 7 6 7 9 10 11 11 10 11 11 11 13 15
12 13 14 14 14 15 14 14 15 15 15 14 14 13 14 14 14 13 13 13 15 15 14 14 14 15 17 20 21 22 22 22 21 22 25 27 27 26 26 25 24 24 24 24 25 26 26 24 22 21 20 18 15 13 13 12 10 8 7 7 6 5 5 6 6 6 7 7 6 7 8 9 9 9 9 9 9 9 8 8 10 11 12 13 15
11 12 13 13 14 15 14 13 15 16 16 15 15 14 15 15 14 14 13 13 14 15 14 14 14 15 18 21 21 21 22 21 21 23 25 26 27 27 26 26 27 26 26 26 26 26 24 23 22 21 19 18 17 17 16 15 14 12 9 6 6 7 6 7 7 8 7 6 6 7 8 9 9 9 8 7 8 9 8 8 10 11 12 13 14
11 11 12 13 15 16 15 14 15 16 16 17 17 15 14 13 13 14 14 13 13 13 13 13 13 13 17 20 20 20 21 22 22 22 23 24 24 24 25 25 25 25 24 23 23 23 23 22 22 21 20 20 19 19 20 19 18 17 14 10 8 8 7 7 8 7 6 7 8 9 9 9 9 9 8 7 7 7 7 9 11 13 14 14 14
12 11 12 14 15 16 16 15 16 16 16 17 19 18 16 14 12 12 13 15 14 12 12 12 12 13 16 19 19 17 18 20 21 21 22 22 22 22 23 24 23 22 21 20 20 20 20 20 20 20 20 20 19 19 20 20 19 19 18 16 14 13 10 6 6 8 9 9 9 8 8 8 8 8 9 9 8 9 10 11 12 13 14 14 14
14 12 12 14 15 14 14 15 16 17 16 16 18 19 19 19 16 12 11 13 15 14 12 11 11 12 15 18 19 17 17 19 21 21 21 21 21 22 23 22 20 20 19 17 18 18 19 19 19 19 19 19 18 18 19 20 20 20 20 18 17 16 12 8 8 11 11 10 8 8 8 8 8 9 9 10 11 12 12 11 12 12 13 14 14
14 12 12 14 15 14 13 14 15 16 17 18 17 17 19 21 21 19 17 14 13 13 12 11 11 13 15 16 17 18 20 22 22 21 19 19 21 22 21 19 19 18 16 15 15 17 18 18 18 18 18 18 18 18 18 19 19 20 20 19 18 17 14 12 12 13 11 8 8 8 7 7 8 9 10 10 11 12 13 13 13 13 13 14 15
14 12 12 15 16 15 14 15 15 16 17 17 18 17 17 18 20 23 23 21 17 15 13 12 12 15 17 17 16 17 22 24 22 19 19 19 21 21 20 18 17 16 15 15 16 16 17 18 17 17 18 18 18 18 18 18 18 19 19 20 19 19 17 15 13 10 8 8 9 7 5 7 9 9 10 11 12 13 14 14 14 13 13 15 16
13 11 11 13 15 15 14 14 14 15 17 17 17 16 16 16 17 19 22 24 23 21 19 18 16 16 18 18 15 17 23 24 21 18 19 19 20 20 19 17 16 15 15 16 16 17 18 18 18 17 17 18 18 18 18 18 19 19 19 19 19 18 17 16 15 11 8 9 9 7 5 7 9 9 10 12 13 14 14 14 13 13 14 15 17
12 11 10 10 12 14 14 13 13 15 17 18 17 16 16 16 17 17 18 19 21 22 23 23 20 18 18 17 15 19 24 23 19 17 18 19 18 19 19 18 18 18 17 17 17 17 18 18 18 18 18 18 18 18 18 18 18 18 19 18 18 18 17 17 16 13 9 9 9 8 8 8 9 9 11 13 14 15 15 15 14 14 15 17 18
11 11 10 10 13 15 14 13 12 14 16 17 17 16 16 16 17 17 17 17 18 19 22 23 22 21 18 16 16 22 25 23 19 17 17 17 17 18 18 19 20 19 19 18 18 18 17 17 18 18 18 18 18 18 17 17 17 18 18 17 17 18 18 17 15 13 11 9 8 9 9 9 10 11 12 13 15 15 15 15 15 15 17 18 18
12 13 12 13 15 16 15 13 13 14 15 16 15 15 16 16 17 16 17 17 18 19 21 22 22 22 21 19 20 24 26 23 19 16 16 17 17 17 18 18 18 18 18 18 18 18 18 17 17 17 17 17 17 17 17 17 16 17 17 17 17 17 17 16 14 13 12 11 10 10 10 10 10 12 13 14 16 16 15 15 15 17 19 19 18
12 12 12 14 16 15 15 15 15 15 15 15 15 15 16 17 16 16 16 17 18 19 20 20 21 21 21 21 23 25 26 25 21 19 20 20 20 19 19 18 17 17 17 17 18 18 18 17 17 17 17 17 17 17 17 16 16 16 17 17 17 16 16 16 15 14 13 12 11 11 11 11 12 13 14 15 16 16 15 15 17 18 20 20 19
13 12 12 14 15 15 15 16 16 15 14 15 16 16 16 16 16 16 17 18 18 19 19 20 20 20 20 21 23 24 26 26 24 22 22 23 22 20 20 19 18 18 17 17 18 18 18 18 17 17 17 17 17 17 17 16 16 16 16 16 16 16 15 15 15 15 14 13 12 12 12 13 13 14 15 15 15 15 16 17 17 18 19 20 21
15 15 14 14 14 14 15 16 15 15 14 15 17 17 16 15 15 16 17 18 19 19 19 19 20 20 20 20 20 21 23 24 23 21 22 23 22 21 20 20 19 18 18 18 18 18 18 18 18 18 18 17 17 17 16 16 16 16 16 16 16 16 15 14 14 15 14 13 13 13 13 13 14 16 16 15 14 14 16 17 18 19 19 20 22
16 17 17 15 14 14 15 15 14 14 15 16 16 16 15 15 17 18 19 18 18 18 19 19 20 19 19 18 19 20 20 21 21 20 21 22 21 21 20 19 18 18 18 19 19 18 18 19 19 18 17 17 17 17 16 16 15 15 16 16 15 15 15 14 13 13 13 13 12 13 13 14 15 16 16 15 15 15 17 18 19 20 20 21 22
18 18 18 17 16 15 16 16 15 15 16 16 15 15 16 17 18 18 18 17 16 17 19 20 20 19 18 18 18 18 18 18 19 20 20 20 20 20 20 19 18 18 19 19 18 17 18 18 18 17 17 16 17 17 16 16 15 15 15 15 15 15 14 14 13 13 13 14 14 14 14 14 14 14 15 15 15 16 18 19 20 21 21 22 22
19 19 18 17 16 15 15 15 16 16 17 17 17 18 17 18 17 17 16 16 16 17 18 19 20 20 19 18 18 17 17 18 19 19 20 19 19 20 19 18 18 18 18 18 16 16 16 17 17 16 16 16 16 16 15 14 14 13 14 14 15 14 14 14 14 14 15 15 14 14 13 13 13 14 15 15 16 17 19 20 21 21 21 22 22
19 19 18 17 15 15 15 15 15 16 16 17 18 18 17 17 17 17 17 17 17 17 17 18 19 19 19 18 18 17 18 19 19 19 19 19 19 19 19 18 18 19 19 18 16 15 15 16 16 16 16 16 15 14 13 12 11 11 12 13 14 14 14 14 15 16 16 16 14 14 14 14 14 14 15 15 16 18 19 21 21 22 22 22 22
19 18 17 16 16 16 16 16 16 16 16 16 17 17 16 15 16 16 16 17 17 17 17 18 18 18 18 18 18 18 18 19 19 19 19 19 19 19 18 19 19 20 19 18 16 15 15 15 15 15 16 15 14 13 12 11 10 10 10 11 12 12 13 15 15 16 15 15 14 14 15 16 16 16 16 16 16 18 20 21 21 21 22 22 22
20 18 16 16 17 17 17 17 17 17 16 16 17 17 16 15 15 16 16 16 16 16 17 17 17 17 17 18 18 18 18 19 19 19 19 18 18 18 18 19 20 20 19 18 16 15 15 14 14 14 14 14 13 13 13 11 10 9 8 9 9 11 13 15 15 15 14 14 14 15 16 17 17 16 16 17 18 19 20 21 21 21 21 21 22
20 18 16 16 17 17 17 17 17 17 16 16 16 16 16 16 16 16 16 16 16 15 16 16 16 16 16 17 18 18 18 18 19 19 19 18 17 17 18 19 19 19 19 17 16 15 14 13 13 13 13 13 13 13 12 11 10 9 8 9 10 12 14 14 14 14 14 14 15 16 16 17 17 17 17 18 19 20 21 22 22 21 21 21 23
20 18 16 15 16 16 17 17 17 16 16 15 15 15 15 15 16 16 16 16 15 15 15 16 16 16 16 17 17 17 17 18 18 18 18 17 17 17 18 18 19 19 19 17 16 15 14 14 13 13 13 13 13 12 12 11 10 10 10 11 12 13 14 14 14 15 15 14 15 15 16 17 18 18 18 19 19 20 21 22 22 22 22 23 24
20 17 15 15 15 16 16 16 16 16 16 15 15 15 15 15 15 16 15 15 15 15 16 15 15 16 17 17 17 17 17 17 18 19 18 17 17 17 18 18 19 18 18 17 16 15 15 14 12 12 12 12 12 12 12 12 12 12 13 13 14 14 14 14 14 15 15 15 15 15 16 17 18 18 18 19 19 20 21 22 22 23 23 24 26
17 15 14 15 15 15 16 16 16 15 15 14 14 15 15 15 16 15 14 15 15 15 15 15 16 16 17 17 16 16 17 18 18 18 18 17 17 18 18 18 19 18 17 17 16 16 15 13 12 12 12 12 12 11 12 12 13 13 14 14 14 14 14 14 14 15 15 16 16 16 16 17 18 18 18 19 20 20 22 22 22 23 24 25 26
15 13 13 14 14 15 15 15 15 14 14 14 14 15 15 15 15 15 14 15 15 16 16 16 17 16 16 15 15 16 17 17 17 17 17 17 17 17 18 19 19 18 17 16 16 15 14 13 12 12 12 12 12 12 12 13 13 14 14 14 14 14 15 15 15 16 16 16 16 17 17 18 19 19 19 19 20 21 22 23 23 24 24 25 25
Wind_Direction
238 241 244 247 251 255 257 258 261 265 269 272 276 278 279 282 285 286 288 289 290 291 292 293 292 291 292 294 296 297 297 296 296 296 295 295 295 294 294 290 284 282 282 282 284 284 281 278 277 279 280 279 276 270 263 261 263 261 256 252 251 252 254 257 261 272 273 272 276 282 287 293 298 303 304 302 302 303 306 310 311 308 306 309 308
239 241 244 248 252 256 257 260 263 267 271 274 277 279 280 283 285 287 290 292 294 297 298 299 298 298 299 300 301 301 300 300 299 297 297 298 298 296 294 291 288 288 288 289 292 292 288 282 282 284 284 281 279 275 271 267 262 257 252 250 254 256 253 254 259 271 278 276 274 277 280 285 289 293 293 294 298 300 300 305 310 311 309 309 307
239 241 243 247 251 255 259 263 266 269 273 276 278 280 283 287 291 295 298 302 306 308 307 306 303 302 303 304 304 305 305 305 302 301 300 301 300 298 296 294 291 290 289 291 294 294 291 287 286 287 286 282 280 278 277 274 267 260 256 253 255 257 253 251 257 267 277 280 277 279 284 286 285 284 284 287 292 292 293 301 309 310 312 316 314
238 241 243 247 250 255 260 265 269 272 275 279 281 284 290 298 302 305 307 309 311 313 313 312 309 307 307 307 308 309 308 306 304 303 303 303 300 298 297 295 293 292 290 290 292 292 290 288 287 287 284 279 277 277 275 274 271 265 261 257 254 256 255 252 253 261 273 280 279 279 284 284 282 283 286 288 288 283 284 295 305 304 308 319 321
238 241 244 248 252 258 263 268 272 276 281 284 288 293 300 306 309 309 310 312 314 316 317 317 315 313 311 310 311 311 310 308 305 303 304 305 302 299 298 296 293 293 292 292 292 292 290 288 288 287 282 277 276 275 274 272 269 264 261 258 255 255 257 255 254 257 263 271 278 280 281 281 284 286 287 287 285 277 280 294 301 296 301 315 317
239 243 246 251 258 263 268 272 277 284 290 294 298 303 307 311 313 315 317 319 320 321 321 320 318 315 314 312 312 311 309 307 305 305 306 306 304 302 300 298 295 293 293 294 295 294 292 290 290 287 282 278 278 277 276 273 269 264 259 257 255 253 254 255 253 252 256 264 274 278 279 280 282 284 285 281 278 278 286 296 294 287 302 315 309
244 248 254 260 266 272 278 284 290 296 301 305 309 312 315 318 320 322 324 325 326 326 325 322 318 316 316 316 315 313 311 310 310 311 312 310 307 304 301 300 297 295 295 296 297 296 295 294 293 291 287 285 284 282 279 275 271 267 260 258 257 255 255 256 253 254 257 263 268 272 275 277 276 279 283 277 271 277 289 298 298 301 313 318 309
254 260 265 272 279 288 295 299 303 309 313 316 320 322 324 326 328 329 331 330 329 328 326 323 320 321 322 323 322 322 321 320 321 321 321 319 315 311 307 303 301 300 299 299 299 300 300 298 296 296 296 295 293 289 284 278 273 270 266 262 259 257 256 255 254 255 256 259 262 265 269 272 271 273 276 273 267 270 284 306 312 311 315 315 311
269 276 286 296 302 309 312 312 316 321 324 327 329 331 332 333 334 335 336 335 332 329 327 326 324 323 325 327 329 329 327 327 330 331 326 321 317 314 311 306 302 302 301 302 303 303 301 299 298 300 301 301 299 296 291 283 275 270 269 266 259 254 252 251 251 252 253 256 258 261 265 266 265 270 275 271 268 281 293 305 308 306 310 312 312
291 307 322 327 328 330 330 328 331 334 335 337 338 338 339 339 340 341 341 339 338 336 333 328 324 322 325 328 329 328 326 328 332 330 321 316 316 315 312 307 303 300 298 299 300 301 299 298 297 299 300 300 300 298 295 289 279 271 269 266 259 250 247 248 249 249 252 255 257 261 266 265 265 275 282 278 284 294 296 301 305 306 311 312 313
356 355 352 349 344 344 343 342 343 344 343 343 343 344 345 346 347 347 347 346 345 344 339 333 330 329 329 328 327 326 327 329 328 323 319 318 319 319 317 314 310 305 300 296 295 297 298 298 298 297 296 298 301 300 298 293 284 276 270 265 260 253 248 248 249 248 251 255 259 262 265 269 272 276 279 279 283 288 289 295 303 306 309 310 311
26 11 359 355 352 352 351 349 349 349 348 347 348 349 350 351 352 351 352 353 351 346 342 338 336 333 328 326 327 329 331 331 327 324 324 325 324 323 322 321 319 315 311 305 300 298 297 297 298 297 296 299 303 303 300 296 291 284 275 268 262 255 249 248 249 251 251 253 260 261 259 263 269 273 278 280 279 280 285 294 299 296 300 308 302
17 10 3 358 358 357 353 353 354 354 353 354 355 354 352 352 352 351 353 355 350 344 342 339 335 332 329 329 331 332 333 333 330 329 329 329 329 328 328 327 324 320 317 313 309 306 301 296 295 295 298 303 306 305 302 298 296 292 284 273 262 255 251 248 249 252 253 255 260 260 257 260 269 275 276 273 277 284 288 294 295 289 297 305 295
13 12 8 2 0 359 357 358 360 359 359 1 0 357 352 349 350 353 353 351 345 340 338 336 333 334 333 332 332 332 333 334 332 333 334 332 333 335 335 331 326 322 320 319 318 317 315 307 298 295 298 302 306 308 303 297 296 296 293 283 270 261 255 249 248 249 251 252 255 259 262 262 264 267 266 268 277 281 280 282 282 284 297 302 298
18 15 10 6 5 4 3 3 4 5 6 6 5 0 354 350 352 355 352 345 339 337 335 333 333 335 335 334 332 332 333 335 336 337 337 336 337 340 339 335 330 326 324 323 322 322 323 320 310 302 299 298 304 311 308 299 293 291 291 289 282 273 263 257 255 253 251 251 253 259 265 266 266 269 271 273 275 273 272 273 274 288 303 306 305
20 17 13 11 10 9 7 7 9 9 7 7 6 1 356 355 356 354 345 339 338 337 336 336 335 335 333 332 332 332 335 340 342 343 341 340 342 344 342 339 335 331 329 329 329 328 327 325 320 314 308 302 303 309 311 306 299 291 286 286 286 281 275 271 266 260 259 261 262 265 269 271 272 274 277 275 267 262 259 257 267 295 311 309 306
20 18 16 14 13 13 12 10 9 8 6 4 2 359 357 356 356 351 339 335 338 339 338 336 333 332 333 335 336 336 337 341 346 347 346 346 347 348 345 341 336 333 333 335 334 331 327 325 321 319 316 312 307 303 300 302 304 297 287 284 282 280 281 281 276 267 265 267 268 269 270 272 272 271 274 271 256 241 231 242 268 300 313 306 302
19 18 16 15 15 15 15 12 9 7 4 1 358 358 357 355 352 346 336 334 337 339 338 333 331 335 339 340 340 339 336 339 346 348 349 351 353 352 349 343 339 337 337 336 332 330 327 326 325 322 322 326 325 312 299 301 308 303 291 282 277 276 280 283 280 274 272 267 265 265 265 268 268 267 270 266 245 232 244 265 284 297 295 289 290
16 16 14 15 16 16 15 13 10 7 4 2 0 357 356 355 352 344 338 339 340 336 335 334 334 340 343 341 342 343 340 343 347 348 349 353 357 356 353 348 343 340 339 335 330 330 330 328 327 327 329 337 341 334 323 318 316 309 295 277 268 272 282 286 280 275 275 272 272 276 277 271 266 264 267 267 261 264 275 282 288 289 284 277 280
14 14 15 18 18 18 16 13 10 9 6 3 359 358 359 358 353 347 346 348 342 334 337 339 337 340 342 341 345 349 348 347 347 348 349 353 358 359 355 351 345 340 338 334 330 330 330 329 329 330 332 335 336 334 328 321 315 311 299 275 266 277 289 291 281 271 270 273 280 288 295 294 282 275 276 274 272 275 280 282 284 283 276 268 270
16 17 20 22 21 20 16 11 10 11 7 1 358 2 5 358 353 353 353 349 342 338 342 344 340 340 343 344 348 352 352 349 347 347 350 354 359 360 355 349 344 338 335 333 331 329 328 328 329 328 328 330 329 326 323 318 317 319 311 288 281 288 291 285 277 267 261 267 278 285 289 290 287 286 287 284 282 280 279 280 283 283 274 267 267
19 20 22 23 22 20 16 15 14 10 6 3 2 5 5 357 355 359 355 347 345 345 345 347 345 343 344 348 351 349 349 350 348 348 350 354 358 358 353 347 343 339 335 332 331 329 326 326 327 326 326 326 325 323 320 318 319 328 334 319 299 290 279 270 270 265 258 260 267 275 281 278 275 278 281 281 282 279 276 278 284 285 281 276 272
21 24 23 22 21 18 17 18 14 7 6 7 6 4 1 357 358 0 355 349 351 350 347 348 348 344 344 349 348 344 345 349 349 348 350 355 355 353 349 345 343 340 336 331 329 327 326 325 325 324 323 321 320 320 320 320 322 333 346 343 331 317 306 297 286 272 260 256 258 265 273 273 271 274 276 276 277 275 274 278 286 292 294 293 289
23 24 22 21 18 16 18 16 10 7 8 7 5 3 0 358 357 358 356 354 355 352 348 348 347 344 345 346 343 341 343 347 349 349 349 352 351 348 345 344 342 340 336 331 328 326 324 322 319 319 319 318 317 319 320 323 336 345 333 327 327 328 328 324 317 306 291 283 277 275 277 280 281 280 279 280 281 281 279 282 290 297 299 300 300
25 23 21 22 17 13 14 14 10 10 11 6 3 1 358 356 356 357 357 357 355 351 347 346 345 344 344 343 340 339 339 342 346 345 342 345 346 344 343 342 341 340 337 331 327 325 321 319 319 320 320 317 317 321 320 319 326 333 329 323 324 331 337 335 332 332 325 317 311 307 307 306 299 291 288 289 291 292 290 288 289 294 296 299 303
26 23 20 22 19 12 11 10 8 9 8 6 5 3 357 354 355 359 2 358 352 348 345 344 344 343 340 338 337 336 335 338 342 340 338 342 344 342 341 340 339 339 336 331 328 326 325 326 329 329 325 321 322 326 324 320 319 322 325 329 335 341 342 334 327 324 322 322 323 326 332 332 324 312 305 302 301 300 297 289 284 288 294 302 304
24 20 17 18 15 11 9 5 3 4 4 3 3 1 358 357 358 360 2 355 351 351 348 342 342 342 336 333 333 333 333 336 339 340 340 341 342 341 339 339 338 338 336 334 332 332 333 337 341 339 335 333 338 342 340 338 339 335 331 338 346 337 319 316 320 320 319 320 320 324 330 332 326 317 311 309 310 310 303 288 283 289 300 306 305
24 15 11 12 11 10 10 4 358 359 1 359 358 356 356 355 353 355 358 352 347 349 347 340 337 335 332 332 333 331 332 335 338 338 338 338 338 338 337 337 337 336 335 335 334 334 338 344 349 351 353 354 356 358 359 360 1 359 353 345 339 332 324 324 328 330 334 343 346 342 337 332 328 325 318 308 306 309 305 293 288 294 305 310 310
25 11 5 9 9 8 11 6 359 358 359 358 356 356 357 354 346 346 353 353 346 342 340 335 330 326 330 336 337 331 329 331 333 333 333 333 334 334 332 333 334 333 332 333 334 337 344 351 356 359 2 2 1 1 2 2 3 3 1 358 353 345 333 326 332 347 8 14 359 347 341 337 335 334 330 321 315 318 321 314 307 306 308 309 307
21 11 5 6 5 5 6 4 1 0 359 355 353 355 0 4 359 346 343 346 348 346 337 329 326 326 330 337 339 332 325 325 327 330 332 332 332 332 331 332 333 332 333 336 339 344 351 356 358 1 3 2 1 1 1 360 358 358 356 356 355 353 347 343 355 8 13 7 355 348 344 341 341 342 344 345 338 328 324 320 317 314 312 310 307
14 11 5 2 2 3 2 360 360 360 358 354 352 351 351 356 2 0 347 343 345 345 336 325 324 329 332 334 337 337 334 333 333 334 333 334 336 335 335 338 339 337 338 341 346 352 356 356 356 359 1 0 359 359 359 359 358 356 354 352 352 355 0 8 7 4 3 358 351 350 350 350 354 357 354 347 336 328 324 323 322 319 317 317 314
9 9 3 359 3 7 3 358 357 356 354 353 353 351 347 345 348 354 358 354 347 343 340 333 331 335 338 336 334 336 341 341 338 336 337 341 340 338 340 347 347 344 346 351 354 356 357 355 354 356 357 357 358 358 358 358 357 356 355 353 353 356 359 359 355 357 4 2 351 352 359 3 3 359 351 343 336 333 332 330 329 327 324 322 320
10 9 2 1 6 9 4 355 351 350 350 351 349 347 346 343 340 343 348 352 352 353 353 350 343 340 340 339 334 334 340 341 339 339 343 343 340 341 346 351 351 350 355 360 359 358 356 354 353 354 354 354 354 354 355 356 356 357 357 356 354 353 355 354 351 354 1 356 351 358 12 7 359 351 344 342 338 333 331 330 331 332 329 325 323
11 12 8 2 360 360 356 350 345 344 347 349 346 343 344 345 341 338 339 342 346 349 350 352 351 344 340 340 337 336 340 342 343 344 344 339 338 342 346 349 354 359 3 3 360 357 355 351 350 352 352 352 351 351 352 353 353 354 355 355 353 353 354 354 355 3 9 358 354 3 11 5 360 348 340 341 339 334 331 330 330 330 328 324 322
12 15 13 357 348 350 351 349 346 343 342 345 347 348 347 345 340 337 335 335 335 335 336 341 346 346 344 342 335 334 341 348 352 352 346 340 340 344 347 351 356 359 360 0 358 355 353 351 349 349 349 349 349 349 351 351 349 350 352 352 350 352 353 352 352 358 1 353 352 358 357 354 351 342 335 337 339 336 333 331 330 328 326 324 322
12 11 8 357 350 351 353 354 351 343 338 341 347 347 343 338 334 332 332 332 330 328 328 332 338 342 345 342 333 334 344 354 359 354 347 343 346 350 352 352 352 350 352 353 353 351 351 350 348 347 347 347 347 347 348 348 347 348 350 349 346 348 350 349 348 352 355 355 355 357 356 353 350 344 338 335 335 333 330 328 327 325 325 324 322
10 5 1 357 353 352 355 357 353 342 339 343 345 340 335 333 332 332 331 331 330 328 328 330 334 337 341 340 335 337 345 354 360 357 351 350 354 355 354 351 348 347 348 349 347 347 347 347 347 346 344 344 344 346 347 347 347 347 347 346 346 346 347 349 352 356 358 360 3 4 2 357 348 341 334 331 330 330 329 328 325 323 324 325 322
8 2 355 348 348 352 354 353 348 344 344 344 341 335 330 329 331 333 330 328 328 327 327 329 331 332 334 335 333 335 341 350 359 1 357 355 356 355 352 351 349 346 346 346 345 344 343 343 344 344 343 343 344 345 346 347 346 345 345 345 346 346 346 349 355 358 356 356 0 1 354 345 337 333 330 328 329 329 328 326 324 323 325 325 323
9 5 355 345 345 349 348 345 344 345 344 338 334 331 329 329 331 331 327 325 326 326 326 327 327 329 331 331 331 333 339 346 353 354 351 350 352 352 349 349 348 347 345 344 342 342 341 340 341 341 342 344 344 343 344 345 344 345 346 344 345 347 347 348 353 356 354 348 344 342 339 333 330 328 326 327 328 327 325 324 325 325 324 321 320
8 5 359 352 348 345 340 339 341 340 333 327 326 328 329 329 329 326 323 322 322 322 323 323 324 327 331 331 330 332 335 339 344 345 343 342 345 347 347 347 346 345 343 341 340 341 340 339 338 338 340 342 341 341 343 343 343 344 345 344 346 348 347 345 347 351 349 342 337 337 336 329 326 327 330 333 332 328 325 325 326 326 322 318 318
1 0 358 355 351 343 337 337 336 330 324 322 324 327 326 322 319 318 318 317 318 319 320 320 323 328 331 330 328 330 332 335 338 339 337 338 340 342 344 345 344 342 339 338 338 340 339 337 337 337 337 338 339 339 340 341 342 343 343 345 347 347 346 346 346 345 342 337 334 332 329 327 328 332 336 337 335 330 327 326 324 324 323 322 321
353 354 354 352 348 341 337 334 331 328 327 326 325 323 318 315 315 318 320 319 319 318 317 318 323 328 330 329 330 332 333 334 334 334 334 337 340 342 342 342 341 338 336 337 338 338 335 334 335 337 337 338 338 338 339 339 341 341 342 344 345 345 345 347 345 339 334 330 328 328 329 333 338 337 334 333 331 327 325 324 324 326 325 324 323
349 350 349 346 342 337 333 329 327 326 326 323 321 320 321 322 323 325 323 321 319 317 316 318 321 324 326 330 335 336 334 334 334 335 337 339 340 340 340 341 339 337 337 339 340 338 333 332 334 338 339 339 339 339 339 338 339 341 342 341 341 343 346 344 340 337 336 334 334 337 339 340 339 334 331 330 327 324 323 324 326 327 325 322 322
347 347 343 339 337 336 333 330 326 323 320 318 318 321 325 326 325 323 320 317 316 315 315 315 318 321 325 331 335 335 333 334 337 339 340 340 338 338 340 342 341 340 341 342 343 340 336 336 337 338 339 340 342 343 345 346 346 344 342 340 340 343 343 339 337 339 339 339 339 341 341 339 335 331 329 328 325 324 326 328 328 326 324 323 323
345 345 341 337 335 333 330 328 326 323 321 321 321 322 324 324 320 317 316 314 313 313 313 316 321 325 327 329 332 332 332 334 338 340 341 340 338 340 341 341 340 340 342 344 345 344 342 340 338 338 339 342 347 352 354 355 353 348 344 343 342 338 333 331 334 336 336 335 336 337 337 335 334 332 330 330 330 329 327 327 326 324 323 322 321
343 343 338 330 326 324 323 324 324 323 323 322 322 322 325 324 320 317 315 314 315 316 316 319 324 326 326 326 328 329 330 333 337 340 341 341 341 341 341 340 339 341 343 346 348 346 344 342 341 340 341 344 349 355 356 356 356 355 350 343 334 326 325 328 333 335 336 336 336 335 333 332 332 334 334 333 332 331 328 327 326 325 322 320 319
336 334 327 319 317 317 318 320 320 319 319 319 319 320 321 320 319 319 320 320 320 319 319 320 322 322 322 324 325 326 329 333 336 339 341 341 341 341 340 339 340 342 345 349 351 350 349 348 346 344 345 348 352 354 356 358 0 0 354 343 334 330 332 335 336 337 338 338 336 334 332 331 332 335 335 333 331 330 329 328 327 324 321 319 320
325 323 318 314 313 313 314 316 317 317 317 318 318 316 316 316 316 318 319 320 320 319 318 319 321 321 321 322 323 326 329 332 335 339 341 342 342 342 340 340 341 344 347 351 354 355 355 354 351 350 352 353 354 354 357 360 2 360 353 346 342 339 338 338 339 338 339 338 336 335 333 332 332 332 331 330 330 329 327 326 325 322 321 321 322
320 318 313 310 310 310 312 313 313 313 314 316 317 316 316 315 315 317 319 320 319 317 318 319 320 320 320 322 325 328 330 332 336 340 342 343 344 343 341 341 344 346 348 351 355 358 358 356 356 357 358 357 357 359 1 2 0 357 350 345 343 341 341 341 340 340 340 339 338 338 335 333 333 332 331 331 331 328 325 323 322 321 322 322 323
317 312 307 305 306 309 310 310 310 312 315 317 315 313 312 313 315 318 320 318 317 317 319 320 319 319 321 326 329 330 329 331 334 338 341 343 343 342 342 344 347 348 350 354 357 358 358 359 0 3 4 3 3 5 5 2 358 354 348 344 343 342 342 342 341 341 341 340 339 339 337 335 334 333 332 331 330 326 324 324 323 323 323 323 323
313 307 302 302 305 308 309 309 310 312 313 312 309 307 308 311 315 318 319 319 320 321 321 320 320 323 327 330 329 326 326 329 334 338 341 343 342 342 345 347 347 348 351 356 358 358 359 2 3 6 8 7 6 5 3 0 357 352 347 345 344 344 343 343 342 341 341 341 339 338 337 336 334 333 332 331 329 327 326 326 326 326 325 325 324